| time (UTC) | temp F | wind direction | speed MPH | gust MPH | rain 1hr in | rain 24hr in | rain mn in | humidity % | barometer mb |
| 20260505061447 | 74 | 200 | 13.0 | 21.0 | 0.00 | 0.00 | 0.00 | 75 | 1003.3 |
| 20260505060948 | 74 | 202 | 11.0 | 17.0 | 0.00 | 0.00 | 0.00 | 75 | 1003.4 |
| 20260505060447 | 74 | 193 | 12.0 | 20.0 | 0.00 | 0.00 | 0.00 | 75 | 1003.3 |
| 20260505055948 | 74 | 197 | 14.0 | 20.0 | 0.00 | 0.00 | 0.00 | 75 | 1003.4 |
| 20260505054447 | 74 | 195 | 12.0 | 22.0 | 0.00 | 0.00 | 0.00 | 75 | 1003.3 |
| 20260505053948 | 74 | 195 | 13.0 | 22.0 | 0.00 | 0.00 | 0.00 | 75 | 1003.3 |
| 20260505053447 | 74 | 196 | 13.0 | 20.0 | 0.00 | 0.00 | 0.00 | 75 | 1003.3 |
| 20260505052947 | 74 | 188 | 11.0 | 20.0 | 0.00 | 0.00 | 0.00 | 75 | 1003.3 |
| 20260505051448 | 74 | 184 | 13.0 | 22.0 | 0.00 | 0.00 | 0.00 | 74 | 1003.5 |
| 20260505050948 | 74 | 178 | 13.0 | 22.0 | 0.00 | 0.00 | 0.00 | 74 | 1003.5 |
| 20260505050447 | 74 | 176 | 13.0 | 22.0 | 0.00 | 0.00 | 0.00 | 75 | 1003.7 |
| 20260505041448 | 74 | 180 | 12.0 | 21.0 | 0.00 | 0.00 | 0.00 | 74 | 1003.8 |
| 20260505040948 | 74 | 177 | 12.0 | 21.0 | 0.00 | 0.00 | 0.00 | 74 | 1003.8 |
| 20260505040448 | 74 | 183 | 12.0 | 20.0 | 0.00 | 0.00 | 0.00 | 74 | 1003.9 |
| 20260505035948 | 74 | 178 | 11.0 | 26.0 | 0.00 | 0.00 | 0.00 | 74 | 1003.9 |
| 20260505035447 | 75 | 176 | 12.0 | 26.0 | 0.00 | 0.00 | 0.00 | 73 | 1003.9 |
| 20260505034948 | 75 | 180 | 13.0 | 22.0 | 0.00 | 0.00 | 0.00 | 74 | 1003.9 |
| 20260505034447 | 75 | 175 | 10.0 | 22.0 | 0.00 | 0.00 | 0.00 | 74 | 1003.8 |
| 20260505033948 | 75 | 182 | 11.0 | 22.0 | 0.00 | 0.00 | 0.00 | 74 | 1003.8 |
| 20260505033448 | 75 | 180 | 12.0 | 23.0 | 0.00 | 0.00 | 0.00 | 74 | 1003.7 |
| 20260505032948 | 75 | 174 | 14.0 | 24.0 | 0.00 | 0.00 | 0.00 | 74 | 1003.6 |
| 20260505031949 | 74 | 168 | 12.0 | 20.0 | 0.00 | 0.00 | 0.00 | 74 | 1003.8 |
| 20260505031448 | 74 | 164 | 12.0 | 20.0 | 0.00 | 0.00 | 0.00 | 74 | 1004.0 |
| 20260505030948 | 74 | 165 | 11.0 | 20.0 | 0.00 | 0.00 | 0.00 | 74 | 1003.9 |
| 20260505030449 | 74 | 168 | 11.0 | 21.0 | 0.00 | 0.00 | 0.00 | 74 | 1003.9 |
| 20260505025448 | 74 | 178 | 10.0 | 22.0 | 0.00 | 0.00 | 0.00 | 74 | 1003.9 |
| 20260505024448 | 74 | 168 | 11.0 | 16.0 | 0.00 | 0.00 | 0.00 | 74 | 1003.9 |
| 20260505023949 | 75 | 170 | 12.0 | 16.0 | 0.00 | 0.00 | 0.00 | 73 | 1004.0 |
| 20260505023450 | 75 | 159 | 10.0 | 17.0 | 0.00 | 0.00 | 0.00 | 73 | 1004.0 |
| 20260505022448 | 75 | 165 | 10.0 | 15.0 | 0.00 | 0.00 | 0.00 | 72 | 1004.0 |
| 20260505021949 | 75 | 179 | 11.0 | 15.0 | 0.00 | 0.00 | 0.00 | 72 | 1004.1 |
| 20260505021448 | 75 | 172 | 10.0 | 15.0 | 0.00 | 0.00 | 0.00 | 72 | 1004.0 |
| 20260505020948 | 75 | 180 | 10.0 | 15.0 | 0.00 | 0.00 | 0.00 | 71 | 1004.1 |
| 20260505020449 | 75 | 175 | 11.0 | 15.0 | 0.00 | 0.00 | 0.00 | 71 | 1004.0 |
| 20260505015448 | 76 | 177 | 8.0 | 20.0 | 0.00 | 0.00 | 0.00 | 71 | 1004.0 |
| 20260505014948 | 76 | 173 | 12.0 | 20.0 | 0.00 | 0.00 | 0.00 | 70 | 1003.9 |
| 20260505014448 | 76 | 183 | 10.0 | 22.0 | 0.00 | 0.00 | 0.00 | 70 | 1003.9 |
| 20260505013948 | 76 | 177 | 11.0 | 24.0 | 0.00 | 0.00 | 0.00 | 70 | 1003.9 |
| 20260505013449 | 76 | 185 | 12.0 | 24.0 | 0.00 | 0.00 | 0.00 | 70 | 1003.8 |
| 20260505012949 | 76 | 178 | 12.0 | 25.0 | 0.00 | 0.00 | 0.00 | 70 | 1003.7 |
| 20260505012448 | 76 | 174 | 12.0 | 25.0 | 0.00 | 0.00 | 0.00 | 70 | 1003.8 |
| 20260505011949 | 76 | 175 | 13.0 | 25.0 | 0.00 | 0.00 | 0.00 | 70 | 1003.8 |
| 20260505011449 | 76 | 173 | 10.0 | 24.0 | 0.00 | 0.00 | 0.00 | 69 | 1003.9 |
| 20260505010949 | 76 | 185 | 16.0 | 24.0 | 0.00 | 0.00 | 0.00 | 69 | 1003.7 |
| 20260505010449 | 76 | 177 | 14.0 | 24.0 | 0.00 | 0.00 | 0.00 | 69 | 1003.7 |
| 20260505005949 | 76 | 178 | 12.0 | 24.0 | 0.00 | 0.00 | 0.00 | 69 | 1003.8 |
| 20260505004949 | 77 | 187 | 12.0 | 24.0 | 0.00 | 0.00 | 0.00 | 68 | 1003.7 |
| 20260505004449 | 77 | 191 | 13.0 | 24.0 | 0.00 | 0.00 | 0.00 | 68 | 1003.8 |
| 20260505003949 | 77 | 177 | 16.0 | 26.0 | 0.00 | 0.00 | 0.00 | 68 | 1003.8 |
| 20260505003449 | 77 | 179 | 12.0 | 26.0 | 0.00 | 0.00 | 0.00 | 68 | 1003.8 |
| 20260505002949 | 77 | 183 | 17.0 | 26.0 | 0.00 | 0.00 | 0.00 | 68 | 1003.8 |
| 20260505002449 | 77 | 183 | 10.0 | 17.0 | 0.00 | 0.00 | 0.00 | 68 | 1003.9 |
| 20260505001949 | 77 | 181 | 12.0 | 20.0 | 0.00 | 0.00 | 0.00 | 67 | 1004.0 |
| 20260505001450 | 78 | 180 | 14.0 | 22.0 | 0.00 | 0.00 | 0.00 | 67 | 1003.9 |
| 20260505000950 | 78 | 178 | 14.0 | 24.0 | 0.00 | 0.00 | 0.00 | 66 | 1004.0 |
| 20260505000449 | 78 | 171 | 16.0 | 25.0 | 0.00 | 0.00 | 0.00 | 66 | 1003.9 |
| 20260504235950 | 78 | 184 | 16.0 | 25.0 | 0.00 | 0.00 | 0.00 | 65 | 1003.9 |
| 20260504234950 | 79 | 186 | 12.0 | 23.0 | 0.00 | 0.00 | 0.00 | 66 | 1003.9 |
| 20260504234449 | 79 | 185 | 12.0 | 23.0 | 0.00 | 0.00 | 0.00 | 66 | 1004.0 |
| 20260504232949 | 79 | 177 | 16.0 | 24.0 | 0.00 | 0.00 | 0.00 | 65 | 1004.1 |
| 20260504232450 | 79 | 190 | 17.0 | 26.0 | 0.00 | 0.00 | 0.00 | 65 | 1004.1 |
| 20260504225949 | 80 | 191 | 14.0 | 30.0 | 0.00 | 0.00 | 0.00 | 64 | 1004.4 |
| 20260504224950 | 80 | 191 | 18.0 | 29.0 | 0.00 | 0.00 | 0.00 | 62 | 1004.4 |
| 20260504224450 | 80 | 176 | 18.0 | 26.0 | 0.00 | 0.00 | 0.00 | 62 | 1004.5 |
| 20260504223949 | 80 | 167 | 16.0 | 33.0 | 0.00 | 0.00 | 0.00 | 63 | 1004.5 |
| 20260504223450 | 80 | 197 | 20.0 | 33.0 | 0.00 | 0.00 | 0.00 | 62 | 1004.6 |
| 20260504222950 | 80 | 176 | 16.0 | 26.0 | 0.00 | 0.00 | 0.00 | 63 | 1004.5 |
| 20260504222450 | 81 | 162 | 16.0 | 26.0 | 0.00 | 0.00 | 0.00 | 62 | 1004.5 |
| 20260504221950 | 80 | 196 | 20.0 | 26.0 | 0.00 | 0.00 | 0.00 | 62 | 1004.5 |
| 20260504221450 | 80 | 156 | 17.0 | 33.0 | 0.00 | 0.00 | 0.00 | 62 | 1004.4 |
| 20260504220950 | 81 | 178 | 19.0 | 33.0 | 0.00 | 0.00 | 0.00 | 62 | 1004.5 |
| 20260504220450 | 81 | 184 | 17.0 | 26.0 | 0.00 | 0.00 | 0.00 | 62 | 1004.5 |
| 20260504215950 | 81 | 175 | 14.0 | 25.0 | 0.00 | 0.00 | 0.00 | 62 | 1004.6 |
| 20260504215450 | 81 | 166 | 16.0 | 24.0 | 0.00 | 0.00 | 0.00 | 61 | 1004.6 |
| 20260504214950 | 81 | 163 | 16.0 | 25.0 | 0.00 | 0.00 | 0.00 | 62 | 1004.6 |
| 20260504214450 | 81 | 186 | 16.0 | 25.0 | 0.00 | 0.00 | 0.00 | 62 | 1004.9 |
| 20260504213450 | 80 | 203 | 15.0 | 23.0 | 0.00 | 0.00 | 0.00 | 62 | 1005.1 |
| 20260504212950 | 80 | 173 | 15.0 | 26.0 | 0.00 | 0.00 | 0.00 | 62 | 1005.3 |
| 20260504212450 | 80 | 183 | 16.0 | 26.0 | 0.00 | 0.00 | 0.00 | 62 | 1005.5 |
| 20260504211951 | 80 | 175 | 16.0 | 25.0 | 0.00 | 0.00 | 0.00 | 61 | 1005.5 |
| 20260504210950 | 80 | 178 | 16.0 | 26.0 | 0.00 | 0.00 | 0.00 | 61 | 1005.6 |
| 20260504210451 | 80 | 180 | 17.0 | 26.0 | 0.00 | 0.00 | 0.00 | 62 | 1005.7 |
| 20260504205951 | 80 | 184 | 17.0 | 26.0 | 0.00 | 0.00 | 0.00 | 61 | 1005.8 |
| 20260504204951 | 80 | 194 | 18.0 | 28.0 | 0.00 | 0.00 | 0.00 | 61 | 1006.0 |
| 20260504204450 | 80 | 180 | 17.0 | 26.0 | 0.00 | 0.00 | 0.00 | 61 | 1006.1 |
| 20260504203951 | 79 | 190 | 17.0 | 29.0 | 0.00 | 0.00 | 0.00 | 61 | 1006.3 |
| 20260504203451 | 80 | 176 | 18.0 | 29.0 | 0.00 | 0.00 | 0.00 | 60 | 1006.4 |
| 20260504202451 | 80 | 199 | 15.0 | 26.0 | 0.00 | 0.00 | 0.00 | 61 | 1006.6 |
| 20260504201950 | 80 | 201 | 18.0 | 28.0 | 0.00 | 0.00 | 0.00 | 61 | 1006.6 |
| 20260504201451 | 80 | 208 | 13.0 | 28.0 | 0.00 | 0.00 | 0.00 | 61 | 1006.6 |
| 20260504200951 | 79 | 186 | 18.0 | 28.0 | 0.00 | 0.00 | 0.00 | 60 | 1006.8 |
| 20260504200450 | 79 | 198 | 14.0 | 25.0 | 0.00 | 0.00 | 0.00 | 60 | 1006.9 |
| 20260504195450 | 79 | 196 | 16.0 | 24.0 | 0.00 | 0.00 | 0.00 | 61 | 1007.2 |
| 20260504194951 | 79 | 185 | 16.0 | 26.0 | 0.00 | 0.00 | 0.00 | 61 | 1007.2 |
| 20260504194451 | 79 | 167 | 18.0 | 26.0 | 0.00 | 0.00 | 0.00 | 60 | 1007.3 |
| 20260504193951 | 79 | 198 | 17.0 | 24.0 | 0.00 | 0.00 | 0.00 | 60 | 1007.4 |
| 20260504193451 | 79 | 196 | 15.0 | 26.0 | 0.00 | 0.00 | 0.00 | 62 | 1007.4 |
| 20260504192951 | 78 | 203 | 19.0 | 26.0 | 0.00 | 0.00 | 0.00 | 61 | 1007.5 |
| 20260504191450 | 77 | 188 | 13.0 | 25.0 | 0.00 | 0.00 | 0.00 | 63 | 1007.7 |
| 20260504185951 | 77 | 196 | 16.0 | 25.0 | 0.00 | 0.00 | 0.00 | 62 | 1008.1 |
| 20260504185451 | 77 | 196 | 17.0 | 25.0 | 0.00 | 0.00 | 0.00 | 61 | 1008.1 |
| 20260504184951 | 78 | 189 | 18.0 | 25.0 | 0.00 | 0.00 | 0.00 | 62 | 1008.1 |
| 20260504184451 | 78 | 202 | 13.0 | 22.0 | 0.00 | 0.00 | 0.00 | 63 | 1008.2 |
| 20260504183952 | 77 | 207 | 14.0 | 25.0 | 0.00 | 0.00 | 0.00 | 63 | 1008.2 |
| 20260504182951 | 77 | 182 | 16.0 | 26.0 | 0.00 | 0.00 | 0.00 | 63 | 1008.4 |
| 20260504182451 | 77 | 174 | 13.0 | 28.0 | 0.00 | 0.00 | 0.00 | 63 | 1008.4 |
| 20260504181951 | 77 | 196 | 17.0 | 28.0 | 0.00 | 0.00 | 0.00 | 62 | 1008.6 |
| 20260504181452 | 77 | 193 | 15.0 | 25.0 | 0.00 | 0.00 | 0.00 | 62 | 1008.7 |
| 20260504180952 | 76 | 190 | 13.0 | 25.0 | 0.00 | 0.00 | 0.00 | 62 | 1008.8 |
| 20260504180452 | 76 | 193 | 15.0 | 25.0 | 0.00 | 0.00 | 0.00 | 62 | 1009.0 |
| 20260504174951 | 76 | 209 | 16.0 | 25.0 | 0.00 | 0.00 | 0.00 | 62 | 1009.2 |
| 20260504173951 | 75 | 202 | 17.0 | 28.0 | 0.00 | 0.00 | 0.00 | 63 | 1009.2 |
| 20260504173452 | 75 | 195 | 19.0 | 28.0 | 0.00 | 0.00 | 0.00 | 62 | 1009.1 |
| 20260504172952 | 75 | 182 | 18.0 | 28.0 | 0.00 | 0.00 | 0.00 | 63 | 1009.4 |
| 20260504172452 | 75 | 174 | 17.0 | 33.0 | 0.00 | 0.00 | 0.00 | 63 | 1009.4 |
| 20260504171952 | 75 | 205 | 17.0 | 33.0 | 0.00 | 0.00 | 0.00 | 63 | 1009.4 |
| 20260504171451 | 75 | 176 | 18.0 | 26.0 | 0.00 | 0.00 | 0.00 | 63 | 1009.5 |
| 20260504170952 | 75 | 203 | 17.0 | 24.0 | 0.00 | 0.00 | 0.00 | 63 | 1009.6 |
| 20260504170452 | 75 | 216 | 16.0 | 26.0 | 0.00 | 0.00 | 0.00 | 63 | 1009.5 |
| 20260504150453 | 70 | 208 | 18.0 | 25.0 | 0.00 | 0.00 | 0.00 | 69 | 1011.0 |
| 20260504140952 | 66 | 198 | 16.0 | 23.0 | 0.00 | 0.00 | 0.00 | 74 | 1011.1 |
| 20260504140452 | 66 | 201 | 18.0 | 24.0 | 0.00 | 0.00 | 0.00 | 74 | 1011.2 |
| 20260504130454 | 63 | 190 | 12.0 | 17.0 | 0.00 | 0.00 | 0.00 | 76 | 1011.5 |
| 20260504110454 | 61 | 182 | 6.0 | 9.0 | 0.00 | 0.00 | 0.00 | 77 | 1011.2 |
| 20260504100456 | 62 | 196 | 6.0 | 10.0 | 0.00 | 0.00 | 0.00 | 73 | 1011.4 |
| 20260504081955 | 63 | 195 | 6.0 | 10.0 | 0.00 | 0.00 | 0.00 | 68 | 1012.0 |
| 20260504081455 | 63 | 196 | 7.0 | 12.0 | 0.00 | 0.00 | 0.00 | 68 | 1012.1 |
| 20260504080955 | 63 | 195 | 7.0 | 12.0 | 0.00 | 0.00 | 0.00 | 68 | 1012.1 |
| 20260504080455 | 63 | 194 | 7.0 | 10.0 | 0.00 | 0.00 | 0.00 | 68 | 1012.2 |